Terminal Aerodrome Forecast
Issued by NWS Blacksburg, VA

Home | Current Version | Previous Version | Text Only | Print | Product List | Glossary On
Versions: 1 2 3 4 5 6 7 8 9 10 11 12 13 14 15 16 17 18 19 20 21 22 23 24 25 26 27 28 29 30 31 32 33 34 35 36 37 38 39 40 41
000
FTUS41 KRNK 161130
TAFLYH
TAF
KLYH 161130Z 1612/1712 00000KT P6SM FEW001 BKN120
     FM161400 24003KT P6SM SCT035 BKN150
     FM162100 32004KT P6SM BKN050
     FM170100 00000KT P6SM SCT050 BKN100
     FM170800 03005KT 4SM BR SCT025 BKN040=

USA.gov is the U.S. government's official web portal to all federal, state and local government web resources and services.